THOR ABLESTAR DEB, 558

Orbit data source: Space-Track

THOR ABLESTAR DEB, 558 is space debris in LEO originally from a launch on Thu, 29 Jun 1961 UTC launched from the Air Force Eastern Test Range (AFETR). Debris objects in space refer to the collection of defunct objects orbiting the Earth. Examples of debris include non-operational satellites, rocket bodies, and fragments generated from explosions, collisions, or faulty payload assembly.

Loading next visibility...
THOR ABLESTAR DEB details
Identifier
558, 1961-015GQ
Orbit
LEO
Last TLE update18 hours ago
Origin
Flag of USUSAF SSD (US)
ManufacturerUnknown
MissionSpacecraft
Bus & MotorUnknown
MassUnknown
Launch date (UTC)
1961-06-29 (64 years ago)
Launch vehicleUnknown
Launch site
Air Force Eastern Test Range (AFETR)
Object type
Payload
Rocket body
Debris
Shape & HBRUnknown
Radar Cross SectionSmall (<0.1 m²)

Expand to show TLE details & history

TLE from 18 hours ago
0 THOR ABLESTAR DEB
1 00558U 61015GQ  25035.51588638  .00000178  00000-0  59188-3 0  9990
2 00558  65.6985 140.2254 0481220 297.8855 141.1610 12.86321567985634
Epoch: 2025-02-04T12:22Z
Definitive object data (Epoch: 2025-02-04T12:22:52.583Z)
Latitude64.69606°
Longitude-108.51278°
Altitude1,621.465 km
Speed6.929 km/s
True Right ascension14h 08m 30s
True Declination64° 34' 38"
Sunlit
Object was in daylight at TLE epoch
Visualization TLE readout
Latitude15.76436°
Longitude-174.75635°
Altitude1,234.499 km
Speed7.278 km/s
Apparent Right ascension11h 27m 18s
Apparent Declination-34° 54' 44"
Sunlit
Object is in full shadow
Visualization observer readout
Local Sidereal Time08:43:47
Azimuth147.326° SSE
Elevation6.218°
Doppler factor1
Orbital elements
Apogee altitude1,684.947 km
Perigee altitude944.553 km
Semi-major axis7,692.887 km
Eccentricity0.048122
Inclination65.6985°
RAAN140.2254°
Arg. of periapsis297.8855°
True anomaly144.4624°
Mean anomaly141.161°
Eccentric anomaly142.82696°
Mean motion3.21669 °/min
BSTAR0.00059188
Orbital period111.92 mins
Loading maneuver chart data...

THOR ABLESTAR DEB Visibility forecast

Observer location: undefined°, undefined

Span
Click to sort rows by Start time (UTC) header in descending order
Start Az.
Max El. time (UTC)
Max El. Az.
Max El.
End time (UTC)
End Az.
10 mins2025-02-05 06:43:34.809Z135.763° SSE2025-02-05 06:48:34.809Z94.019° ESE18.019°2025-02-05 06:53:34.809Z58.868° ENE
15 mins2025-02-05 08:35:34.809Z209.933° SW2025-02-05 08:42:34.809Z12.988° NNE44.755°2025-02-05 08:50:34.809Z30.433° NE
13 mins2025-02-05 10:33:34.809Z276.606° WNW2025-02-05 10:39:34.809Z328.541° NNW24.459°2025-02-05 10:46:34.809Z17.811° NNE
6 mins2025-02-05 12:36:34.809Z338.084° N2025-02-05 12:38:34.809Z351.319° N13.397°2025-02-05 12:42:34.809Z16.733° NNE
11 mins2025-02-05 14:34:34.809Z350.945° N2025-02-05 14:39:34.809Z24.982° NE18.302°2025-02-05 14:45:34.809Z63.852° ENE
17 mins2025-02-05 16:29:34.809Z338.656° N2025-02-05 16:37:34.809Z42.722° NE37.653°2025-02-05 16:46:34.809Z122.066° SE
17 mins2025-02-05 18:25:34.809Z317.355° NNW2025-02-05 18:33:34.809Z252.601° W37.125°2025-02-05 18:42:34.809Z179.869° S
|